Ozark, AL

6:59 PM CDT on May 27, 2017 (GMT -0500)
Cairns Army Air Field

Weather History for KOZR - January, 2014

Change the Weather History Date:

Friday, January 17, 2014

  Actual Average Record
Temperature  
Mean Temperature 48 °F -  
Max Temperature 61 °F 58 °F 77 °F (2017)
Min Temperature 35 °F 36 °F 21 °F (1997)
Degree Days  
Heating Degree Days 17    
Moisture  
Dew Point 26 °F    
Average Humidity 52    
Maximum Humidity 90    
Minimum Humidity 25    
Precipitation  
Precipitation 0.00 in - - ()
Sea Level Pressure  
Sea Level Pressure 30.10 in    
Wind  
Wind Speed 7 mph (WSW)    
Max Wind Speed 14 mph    
Max Gust Speed 24 mph    
Visibility 10 miles    
Events      
Averages and records for this station are not official NWS values.
T = Trace of Precipitation, MM = Missing Value Source: NWS Daily Summary

Daily Weather History Graph

Daily Weather History Graph

Search for Another Location

Airport or City:

Trip Planner

Search our weather history database for the weather conditions in past years. The results will help you decide how hot, cold, wet, or windy it might be!

Date:

Astronomy

Jan. 17, 2014 Rise Set
Actual Time 6:41 AM CST 5:04 PM CST
Civil Twilight 6:15 AM CST 5:30 PM CST
Nautical Twilight 5:45 AM CST 6:00 PM CST
Astronomical Twilight 5:16 AM CST 6:29 PM CST
Moon 6:40 PM CST (1/17) 7:17 AM CST (1/17)
Length of Visible Light 11h 15m
Length of Day
10h 22m
Full, 98% of the Moon is Illuminated
Jan 17
Full
Jan 23
Last Quarter
Jan 30
New
Feb 6
First Quarter
Feb 14
Full

Hourly Weather History & Observations

Time (CST) Temp. Windchill Dew Point Humidity Pressure Visibility Wind Dir Wind Speed Gust Speed Precip Events Conditions
12:58 AM 35.6 °F 32.8 °F 28.9 °F 77% 30.12 in 10.0 mi South 3.5 mph - N/A   Clear
1:58 AM 36.1 °F 31.4 °F 30.4 °F 80% 30.09 in 10.0 mi South 5.8 mph - N/A   Clear
2:58 AM 36.5 °F 31.8 °F 31.5 °F 82% 30.08 in 10.0 mi South 5.8 mph - N/A   Clear
3:58 AM 36.7 °F 32.9 °F 32.4 °F 84% 30.08 in 10.0 mi SSW 4.6 mph - N/A   Clear
4:58 AM 36.7 °F 34.1 °F 32.9 °F 86% 30.08 in 10.0 mi SW 3.5 mph - N/A   Clear
5:58 AM 35.8 °F 31.9 °F 33.1 °F 90% 30.09 in 10.0 mi SSW 4.6 mph - N/A   Overcast
6:58 AM 37.2 °F 34.7 °F 34.3 °F 89% 30.10 in 10.0 mi SW 3.5 mph - N/A   Scattered Clouds
7:58 AM 41.9 °F 38.2 °F 38.7 °F 88% 30.12 in 10.0 mi WSW 5.8 mph - N/A   Clear
8:58 AM 46.9 °F - 41.4 °F 81% 30.13 in 10.0 mi WSW 5.8 mph - N/A   Clear
9:58 AM 51.4 °F - 40.1 °F 65% 30.14 in 10.0 mi WSW 6.9 mph - N/A   Clear
10:58 AM 56.8 °F - 34.9 °F 44% 30.11 in 10.0 mi WSW 8.1 mph - N/A   Clear
11:58 AM 58.6 °F - 31.8 °F 36% 30.09 in 10.0 mi WNW 13.8 mph - N/A   Clear
12:58 PM 59.9 °F - 27.1 °F 29% 30.06 in 10.0 mi West 13.8 mph 19.6 mph N/A   Clear
1:58 PM 61.2 °F - 25.3 °F 26% 30.02 in 10.0 mi SW 12.7 mph 19.6 mph N/A   Clear
2:58 PM 60.8 °F - 25.3 °F 26% 30.02 in 10.0 mi West 12.7 mph 24.2 mph N/A   Clear
3:58 PM 58.8 °F - 23.0 °F 25% 30.03 in 10.0 mi West 11.5 mph 20.7 mph N/A   Clear
4:58 PM 54.1 °F - 21.7 °F 28% 30.04 in 10.0 mi WNW 10.4 mph 17.3 mph N/A   Clear
5:58 PM 50.9 °F - 18.0 °F 27% 30.07 in 10.0 mi West 11.5 mph - N/A   Clear
6:58 PM 48.2 °F - 18.1 °F 30% 30.10 in 10.0 mi West 8.1 mph - N/A   Clear
7:58 PM 46.2 °F 40.8 °F 18.5 °F 33% 30.13 in 10.0 mi WNW 11.5 mph - N/A   Clear
8:58 PM 44.6 °F 39.2 °F 12.9 °F 28% 30.16 in 10.0 mi WNW 10.4 mph - N/A   Clear
9:58 PM 41.5 °F 36.4 °F 10.9 °F 29% 30.19 in 10.0 mi NW 8.1 mph - N/A   Clear
10:58 PM 38.8 °F 33.8 °F 10.6 °F 31% 30.20 in 10.0 mi WNW 6.9 mph - N/A   Clear
11:58 PM 36.3 °F 30.1 °F 11.1 °F 35% 30.20 in 10.0 mi NW 8.1 mph - N/A   Clear